This is the latest recevied weather packets stored in our database for station/object K5NWZ. If no packets are shown the sender has not sent any weather packets the latest 10 day(s).
| Time | Temp. | Humidity | Pressure | Rain* | Wind** | Luminosity | Snow |
|---|---|---|---|---|---|---|---|
| 1778086028 | 2.78° C | 76% | 1029.9 hPa | 1.78 mm | - | 190 W/m² | - |
| 1778085725 | 1.67° C | 82% | 1029.7 hPa | 1.78 mm | - | 145 W/m² | - |
| 1778085421 | 1.67° C | 80% | 1029.8 hPa | 1.27 mm | - | 142 W/m² | - |
| 1778085116 | 1.67° C | 81% | 1029.7 hPa | 1.27 mm | - | 161 W/m² | - |
| 1778084813 | 1.67° C | 81% | 1029.6 hPa | 1.78 mm | - | 170 W/m² | - |
| 1778084510 | 1.67° C | 81% | 1029.3 hPa | 1.78 mm | - | 186 W/m² | - |
| 1778084207 | 1.67° C | 81% | 1029.3 hPa | 1.78 mm | - | 189 W/m² | - |
| 1778083904 | 1.67° C | 86% | 1029.4 hPa | 1.78 mm | - | 178 W/m² | - |
| 1778083602 | 1.11° C | 89% | 1029.5 hPa | 1.27 mm | - | 190 W/m² | - |
| 1778083299 | 0.56° C | 91% | 1029.7 hPa | 1.27 mm | - | 144 W/m² | - |
| 1778082998 | 0.56° C | 94% | 1029.4 hPa | 1.78 mm | - | 131 W/m² | - |
| 1778082694 | 0.56° C | 97% | 1029.3 hPa | 1.27 mm | - | 136 W/m² | - |
| 1778081556 | 1.11° C | 97% | 1029.3 hPa | 0 mm | - | 123 W/m² | - |
| 1778081253 | 0.56° C | 97% | 1029.1 hPa | 1.78 mm | - | 128 W/m² | - |
| 1778080950 | 0.56° C | 97% | 1029.3 hPa | 1.78 mm | - | 111 W/m² | - |
| 1778080649 | 0.56° C | 97% | 1029.1 hPa | 0 mm | - | 112 W/m² | - |
| 1778080345 | 0° C | 97% | 1029.1 hPa | 1.27 mm | - | 106 W/m² | - |
| 1778080042 | 0.56° C | 97% | 1029.1 hPa | 1.27 mm | - | 97 W/m² | - |
| 1778079739 | 0° C | 97% | 1029 hPa | 0 mm | - | 91 W/m² | - |
| 1778079436 | 0° C | 97% | 1028.8 hPa | 0 mm | - | 88 W/m² | - |
| 1778079133 | 0° C | 97% | 1029 hPa | 0 mm | - | 78 W/m² | - |
| 1778078830 | 0° C | 98% | 1029.1 hPa | 0 mm | - | 69 W/m² | - |
| 1778078527 | 0° C | 98% | 1028.9 hPa | 0 mm | - | 63 W/m² | - |
| 1778078224 | 0° C | 98% | 1029.1 hPa | 0 mm | - | 57 W/m² | - |
| 1778077922 | 0° C | 98% | 1028.9 hPa | 1.78 mm | - | 57 W/m² | - |
* Rain latest hour (hover to see other rain measurements)
** Current wind speed in m/s (hover to see current wind gust speed)